Overview Statistics Trail Chart Weather Telemetry Raw packets
 

This is the latest recevied weather packets stored in our database for station/object AB4KY. If no packets are shown the sender has not sent any weather packets the latest 10 day(s).

<< 100 101 102 103 104 105 106 >>
Time Temp. Humidity Pressure Rain* Wind** Luminosity Snow
1787865572 28.33° C 68% 1012.5 hPa 0 mm - 46 W/m² -
1787865266 27.78° C 65% 1012.5 hPa 0 mm - 46 W/m² -
1787864962 28.33° C 65% 1012.7 hPa 0 mm - 53 W/m² -
1787864658 27.78° C 67% 1012.7 hPa 0 mm - 49 W/m² -
1787864351 27.78° C 67% 1012.8 hPa 0 mm - 77 W/m² -
1787864046 27.78° C 70% 1012.7 hPa 0 mm - 114 W/m² -
1787863744 27.78° C 69% 1012.5 hPa 0 mm - 70 W/m² -
1787863443 28.33° C 68% 1012.7 hPa 0 mm - 113 W/m² -
1787863140 27.78° C 67% 1013 hPa 0 mm - 79 W/m² -
1787862835 27.78° C 69% 1012.9 hPa 0 mm - 95 W/m² -
1787862529 27.78° C 70% 1012.7 hPa 0 mm - 62 W/m² -
1787862224 27.78° C 72% 1012.9 hPa 0 mm - 86 W/m² -
1787861919 27.78° C 71% 1013 hPa 0 mm - 78 W/m² -
1787861619 28.89° C 66% 1012.7 hPa 0 mm - 72 W/m² -
1787861317 28.33° C 65% 1012.9 hPa 0 mm - 72 W/m² -
1787861012 28.33° C 68% 1012.9 hPa 0 mm - 82 W/m² -
1787860705 28.33° C 66% 1013.1 hPa 0 mm - 75 W/m² -
1787860401 28.33° C 68% 1013 hPa 0 mm - 98 W/m² -
1787860095 28.33° C 68% 1013.2 hPa 0 mm - 133 W/m² -
1787859791 28.89° C 69% 1013.1 hPa 0 mm - 89 W/m² -
1787859491 29.44° C 66% 1012.9 hPa 0 mm - 580 W/m² -
1787859191 29.44° C 67% 1013.2 hPa 0 mm - 571 W/m² -
1787858888 28.89° C 72% 1013.1 hPa 0 mm - 522 W/m² -
1787858583 27.78° C 73% 1013.2 hPa 0 mm - 510 W/m² -
1787858283 27.78° C 71% 1013.2 hPa 0 mm - 159 W/m² -

* Rain latest hour (hover to see other rain measurements)
** Current wind speed in m/s (hover to see current wind gust speed)